DW1389 Weather Reports


Display with metric or nautical units.
time (UTC)temp
F
wind
direction
speed
MPH
gust
MPH
rain 1hr
in
rain 24hr
in
rain mn
in
humidity
%
barometer
mb
20260831092430 78 190 2.0 4.0 0.00 0.00 0.00 88 1014.8
20260831091930 78 295 2.0 4.0 0.00 0.00 0.00 87 1014.8
20260831091429 0 230 2.0 2.0 0.00 0.00 0.00
20260831090931 79 212 2.0 4.0 0.00 0.00 0.00 87 1014.7
20260831090653 79 232 2.0 4.0 0.00 0.00 0.00 87 1014.7
20260831085930 79 204 3.0 5.0 0.00 0.00 0.00 87 1014.8
20260831085430 79 210 2.0 5.0 0.00 0.00 0.00 86 1014.8
20260831084930 79 205 2.0 5.0 0.00 0.00 0.00 86 1014.9
20260831084429 79 247 2.0 5.0 0.00 0.00 0.00 86 1014.9
20260831083931 79 170 2.0 6.0 0.00 0.00 0.00 86 1014.9
20260831083430 79 205 2.0 6.0 0.00 0.00 0.00 86 1014.9
20260831082930 79 240 2.0 8.0 0.00 0.00 0.00 86 1014.9
20260831082430 79 72 2.0 8.0 0.00 0.00 0.00 85 1014.8
20260831081930 79 298 2.0 5.0 0.00 0.00 0.00 85 1014.8
20260831081429 80 287 3.0 6.0 0.00 0.00 0.00 85 1014.8
20260831080930 80 237 2.0 6.0 0.00 0.00 0.00 84 1014.9
20260831080430 80 239 2.0 7.0 0.00 0.00 0.00 83 1014.9
20260831080214 80 258 2.0 7.0 0.00 0.00 0.00 82 1014.9
20260831075430 80 321 2.0 3.0 0.00 0.00 0.00 81 1014.8
20260831074929 80 210 2.0 4.0 0.00 0.00 0.00 80 1014.9
20260831074429 80 278 2.0 4.0 0.00 0.00 0.00 80 1014.8
20260831073930 80 223 2.0 4.0 0.00 0.00 0.00 80 1014.9
20260831073430 80 212 1.0 3.0 0.00 0.00 0.00 79 1014.9
20260831072930 80 202 2.0 3.0 0.00 0.00 0.00 79 1015.0
20260831072430 80 199 2.0 4.0 0.00 0.00 0.00 78 1015.0
20260831072204 80 179 1.0 4.0 0.00 0.00 0.00 78 1015.0
20260831071430 80 122 1.0 3.0 0.00 0.00 0.00 78 1014.9
20260831070930 81 279 2.0 4.0 0.00 0.00 0.00 77 1014.9
20260831070659 81 273 2.0 4.0 0.00 0.00 0.00 77 1014.9
20260831065926 81 277 1.0 2.0 0.00 0.00 0.00 76 1014.9
20260831065411 81 213 1.0 0.0 0.00 0.00 0.00 76 1014.9
20260831065254 82 186 2.0 3.0 0.00 0.00 0.00 74 1015.2
20260831064754 82 186 2.0 3.0 0.00 0.00 0.00 74 1015.2
20260831064030 82 128 2.0 3.0 0.00 0.00 0.00 74 1015.2
20260831063530 82 197 2.0 3.0 0.00 0.00 0.00 74 1015.2
20260831063030 82 105 2.0 4.0 0.00 0.00 0.00 73 1015.2
20260831062530 82 148 2.0 4.0 0.00 0.00 0.00 73 1015.0
20260831062030 83 143 1.0 3.0 0.00 0.00 0.00 71 1015.0
20260831061531 83 143 1.0 3.0 0.00 0.00 0.00 71 1015.0
20260831061031 83 171 1.0 3.0 0.00 0.00 0.00 71 1014.9
20260831060530 83 290 1.0 3.0 0.00 0.00 0.00 70 1014.9
20260831060030 83 335 1.0 3.0 0.00 0.00 0.00 70 1014.9
20260831055530 83 310 2.0 2.0 0.00 0.00 0.00 69 1014.8
20260831055221 83 310 2.0 2.0 0.00 0.00 0.00 69 1014.8
20260831054503 83 156 1.0 4.0 0.00 0.00 0.00 68 1014.8
20260831054002 83 133 2.0 4.0 0.00 0.00 0.00 68 1014.8
20260831053502 84 168 2.0 4.0 0.00 0.00 0.00 67 1014.8
20260831053002 84 198 2.0 4.0 0.00 0.00 0.00 67 1014.7
20260831052501 84 61 2.0 3.0 0.00 0.00 0.00 66 1014.7
20260831052001 84 214 1.0 3.0 0.00 0.00 0.00 66 1014.7
20260831051502 84 117 1.0 4.0 0.00 0.00 0.00 66 1014.7
20260831051003 84 286 2.0 4.0 0.00 0.00 0.00 65 1014.6
20260831050454 85 229 1.0 4.0 0.00 0.00 0.00 65 1014.6
20260831045954 85 310 2.0 3.0 0.00 0.00 0.00 64 1014.6
20260831045710 85 238 2.0 5.0 0.00 0.00 0.00 64 1014.6
20260831044931 85 122 2.0 6.0 0.00 0.00 0.00 64 1014.5
20260831044427 85 233 2.0 6.0 0.00 0.00 0.00 63 1014.4
20260831043924 85 56 2.0 4.0 0.00 0.00 0.00 63 1014.4
20260831043410 85 86 2.0 4.0 0.00 0.00 0.00 63 1014.4
20260831042907 86 118 2.0 5.0 0.00 0.00 0.00 63 1014.4
20260831042408 86 303 2.0 5.0 0.00 0.00 0.00 62 1014.4
20260831042033 86 183 2.0 5.0 0.00 0.00 0.00 62 1014.4
20260831042016 86 33 2.0 6.0 0.00 0.00 0.00 62 1014.4
20260831041709 86 217 2.0 6.0 0.00 0.00 0.00 62 1014.4
20260831040408 86 185 2.0 6.0 0.00 0.00 0.00 62 1014.4
20260831035902 86 293 2.0 6.0 0.00 0.00 0.00 62 1014.3
20260831035403 86 161 2.0 7.0 0.00 0.00 0.00 62 1014.3
20260831035149 86 253 3.0 7.0 0.00 0.00 0.00 61 1014.2
20260831034402 87 107 2.0 4.0 0.00 0.00 0.00 61 1014.1
20260831033905 87 107 2.0 5.0 0.00 0.00 0.00 61 1014.1
20260831033356 87 235 3.0 0.0 0.00 0.00 0.00 61 1014.0
20260831032930 87 322 2.0 6.0 0.00 0.00 0.00 60 1014.0
20260831032430 87 322 2.0 6.0 0.00 0.00 0.00 60 1014.0
20260831031928 87 221 2.0 5.0 0.00 0.00 0.00 60 1014.0
20260831031656 87 132 2.0 5.0 0.00 0.00 0.00 60 1014.0
20260831030925 87 87 2.0 4.0 0.00 0.00 0.00 60 1013.9
20260831030655 87 215 2.0 7.0 0.00 0.00 0.00 60 1013.8
20260831025922 87 187 3.0 7.0 0.00 0.00 0.00 59 1013.6
20260831025411 88 30 3.0 6.0 0.00 0.00 0.00 59 1013.6
20260831024909 88 99 2.0 6.0 0.00 0.00 0.00 59 1013.6
20260831024410 88 118 3.0 7.0 0.00 0.00 0.00 59 1013.6
20260831023904 88 137 2.0 7.0 0.00 0.00 0.00 58 1013.5
20260831023649 88 88 3.0 7.0 0.00 0.00 0.00 58 1013.4
20260831023143 89 56 4.0 9.0 0.00 0.00 0.00 58 1013.4
20260831022404 89 1 3.0 9.0 0.00 0.00 0.00 58 1013.2
20260831021903 89 62 3.0 8.0 0.00 0.00 0.00 57 1013.2
20260831021401 89 77 3.0 7.0 0.00 0.00 0.00 57 1013.1
20260831020901 89 60 3.0 7.0 0.00 0.00 0.00 55 1013.0
20260831020405 90 91 3.0 6.0 0.00 0.00 0.00 52 1013.0
20260831015902 90 153 3.0 5.0 0.00 0.00 0.00 50 1012.9
20260831015402 90 126 2.0 5.0 0.00 0.00 0.00 48 1012.8
20260831014902 90 15 2.0 4.0 0.00 0.00 0.00 47 1012.6
20260831014402 91 94 2.0 4.0 0.00 0.00 0.00 46 1012.5
20260831013902 91 96 2.0 4.0 0.00 0.00 0.00 45 1012.4
20260831013403 91 91 2.0 4.0 0.00 0.00 0.00 45 1012.3
20260831012902 91 102 2.0 3.0 0.00 0.00 0.00 44 1012.3
20260831012635 91 101 1.0 3.0 0.00 0.00 0.00 44 1012.3
20260831011901 91 53 1.0 3.0 0.00 0.00 0.00 43 1012.2
20260831011402 92 72 1.0 2.0 0.00 0.00 0.00 43 1012.2
20260831010901 92 38 1.0 3.0 0.00 0.00 0.00 43 1012.2
20260831010647 92 0 1.0 3.0 0.00 0.00 0.00 43 1012.2
20260831005901 93 115 1.0 5.0 0.00 0.00 0.00 42 1012.2
20260831005402 93 313 1.0 5.0 0.00 0.00 0.00 42 1012.2
20260831005141 93 29 1.0 4.0 0.00 0.00 0.00 42 1012.2
20260831004401 94 358 1.0 5.0 0.00 0.00 0.00 41 1012.2
20260831003901 94 218 1.0 5.0 0.00 0.00 0.00 41 1012.2
20260831003402 94 320 1.0 4.0 0.00 0.00 0.00 41 1012.1
20260831002901 95 332 1.0 5.0 0.00 0.00 0.00 40 1012.1
20260831002401 95 80 2.0 6.0 0.00 0.00 0.00 40 1012.0
20260831001900 95 80 2.0 6.0 0.00 0.00 0.00 40 1012.0
20260831001645 95 290 2.0 8.0 0.00 0.00 0.00 40 1012.0
20260831000901 95 291 2.0 8.0 0.00 0.00 0.00 40 1012.0
20260831000402 96 359 3.0 7.0 0.00 0.00 0.00 39 1012.0
20260830235901 96 171 2.0 7.0 0.00 0.00 0.00 39 1012.0
20260830235401 96 116 2.0 7.0 0.00 0.00 0.00 39 1012.1
20260830234900 96 87 2.0 6.0 0.00 0.00 0.00 39 1012.1
20260830234401 97 0 2.0 7.0 0.00 0.00 0.00 38 1012.1
20260830233901 97 19 2.0 7.0 0.00 0.00 0.00 38 1012.1
20260830233401 97 78 2.0 6.0 0.00 0.00 0.00 37 1012.1
20260830232901 97 185 2.0 6.0 0.00 0.00 0.00 37 1012.1
20260830232648 96 237 3.0 6.0 0.00 0.00 0.00 38 1012.1
20260830231901 96 59 3.0 6.0 0.00 0.00 0.00 38 1012.1
20260830231402 97 65 3.0 7.0 0.00 0.00 0.00 38 1012.1
20260830230902 97 6 3.0 7.0 0.00 0.00 0.00 39 1012.1
20260830230650 97 134 2.0 6.0 0.00 0.00 0.00 39 1012.1
20260830225901 97 105 2.0 5.0 0.00 0.00 0.00 40 1012.1
20260830225401 97 62 3.0 8.0 0.00 0.00 0.00 40 1012.1
20260830224901 98 54 2.0 8.0 0.00 0.00 0.00 40 1012.2
20260830224401 98 84 2.0 6.0 0.00 0.00 0.00 38 1012.2
20260830224149 97 225 2.0 6.0 0.00 0.00 0.00 40 1012.2
20260830223401 98 330 2.0 9.0 0.00 0.00 0.00 40 1012.3
20260830222901 98 218 2.0 9.0 0.00 0.00 0.00 40 1012.2
20260830222401 99 348 2.0 7.0 0.00 0.00 0.00 39 1012.2
20260830222153 99 0 2.0 6.0 0.00 0.00 0.00 38 1012.2
20260830221401 98 0 2.0 6.0 0.00 0.00 0.00 39 1012.3
20260830221148 98 120 2.0 6.0 0.00 0.00 0.00 39 1012.3
20260830220401 98 307 2.0 5.0 0.00 0.00 0.00 39 1012.3
20260830215902 98 109 2.0 6.0 0.00 0.00 0.00 40 1012.4
20260830215648 98 39 2.0 6.0 0.00 0.00 0.00 40 1012.5
20260830214902 97 127 2.0 6.0 0.00 0.00 0.00 41 1012.5
20260830214649 97 348 2.0 6.0 0.00 0.00 0.00 42 1012.5
20260830213902 96 359 2.0 6.0 0.00 0.00 0.00 41 1012.5
20260830213401 95 128 2.0 8.0 0.00 0.00 0.00 43 1012.7
20260830213150 96 215 2.0 8.0 0.00 0.00 0.00 42 1012.8
20260830212400 97 85 2.0 7.0 0.00 0.00 0.00 42 1012.9
20260830211901 97 80 2.0 5.0 0.00 0.00 0.00 41 1013.0
20260830211401 98 209 2.0 5.0 0.00 0.00 0.00 40 1012.9
20260830210903 98 216 2.0 7.0 0.00 0.00 0.00 40 1013.1
20260830210402 98 285 2.0 7.0 0.00 0.00 0.00 41 1013.2
20260830205901 98 216 2.0 6.0 0.00 0.00 0.00 40 1013.2
20260830205401 98 201 2.0 7.0 0.00 0.00 0.00 41 1013.3
20260830204901 97 243 3.0 8.0 0.00 0.00 0.00 41 1013.4
20260830204401 97 277 2.0 8.0 0.00 0.00 0.00 43 1013.4
20260830204152 98 43 3.0 7.0 0.00 0.00 0.00 41 1013.4
20260830203401 98 137 3.0 7.0 0.00 0.00 0.00 42 1013.5
20260830202901 98 346 2.0 6.0 0.00 0.00 0.00 41 1013.5
20260830202651 97 209 3.0 7.0 0.00 0.00 0.00 42 1013.6
20260830201901 97 268 4.0 8.0 0.00 0.00 0.00 44 1013.8
20260830201648 97 202 3.0 8.0 0.00 0.00 0.00 43 1013.8
20260830200901 96 206 2.0 6.0 0.00 0.00 0.00 44 1013.9
20260830200647 96 248 2.0 6.0 0.00 0.00 0.00 45 1014.0
20260830195900 96 11 2.0 6.0 0.00 0.00 0.00 44 1014.1
20260830195400 96 256 2.0 7.0 0.00 0.00 0.00 44 1014.1
20260830195148 96 96 2.0 7.0 0.00 0.00 0.00 46 1014.1
20260830194402 96 342 2.0 7.0 0.00 0.00 0.00 46 1014.1
20260830193901 96 251 3.0 8.0 0.00 0.00 0.00 46 1014.3
20260830193401 96 238 3.0 8.0 0.00 0.00 0.00 46 1014.4
20260830192901 96 92 2.0 7.0 0.00 0.00 0.00 46 1014.5
20260830192648 96 146 2.0 7.0 0.00 0.00 0.00 46 1014.6
20260830191901 96 209 2.0 7.0 0.00 0.00 0.00 46 1014.6
20260830191401 96 0 2.0 6.0 0.00 0.00 0.00 47 1014.7
20260830190901 96 251 3.0 7.0 0.00 0.00 0.00 46 1014.9
20260830190401 96 15 2.0 7.0 0.00 0.00 0.00 46 1014.8
20260830185901 95 59 2.0 9.0 0.00 0.00 0.00 48 1014.9
20260830185401 95 229 2.0 9.0 0.00 0.00 0.00 47 1015.0
20260830184902 95 20 2.0 6.0 0.00 0.00 0.00 47 1015.0
20260830184401 94 236 2.0 6.0 0.00 0.00 0.00 48 1015.2
20260830183900 94 108 3.0 7.0 0.00 0.00 0.00 49 1015.2
20260830183400 94 227 3.0 7.0 0.00 0.00 0.00 50 1015.3
20260830182902 94 321 2.0 7.0 0.00 0.00 0.00 49 1015.3
20260830182401 94 109 2.0 7.0 0.00 0.00 0.00 51 1015.4
20260830182147 93 0 3.0 9.0 0.00 0.00 0.00 51 1015.5
20260830181649 93 261 3.0 9.0 0.00 0.00 0.00 51 1015.5
20260830180905 93 80 2.0 6.0 0.00 0.00 0.00 52 1015.8
20260830180330 93 18 2.0 6.0 0.00 0.00 0.00 51 1015.9
20260830175831 93 231 2.0 7.0 0.00 0.00 0.00 53 1015.9
20260830175331 92 269 3.0 7.0 0.00 0.00 0.00 53 1016.1
20260830174830 92 242 2.0 7.0 0.00 0.00 0.00 53 1016.1
20260830174617 92 258 2.0 7.0 0.00 0.00 0.00 55 1016.3
20260830173829 92 105 3.0 8.0 0.00 0.00 0.00 55 1016.3
20260830173329 92 225 3.0 8.0 0.00 0.00 0.00 55 1016.4
20260830172832 0 0.0 0.0 0.00 0.00 0.00
20260830172523 0 0.0 0.0 0.00 0.00 0.00
20260830171804 0 0.0 0.0 0.00 0.00 0.00
20260830171201 91 175 3.0 6.0 0.00 0.00 0.00 57 1016.8
20260830170703 91 175 3.0 8.0 0.00 0.00 0.00 57 1016.8
20260830170201 91 187 4.0 0.0 0.00 0.00 0.00 57 1016.8
20260830165703 0 0.0 0.0 0.00 0.00 0.00
20260830165230 90 238 2.0 4.0 0.00 0.00 0.00 60 1016.9
20260830164730 90 238 2.0 4.0 0.00 0.00 0.00 60 1016.9
20260830164230 90 227 2.0 5.0 0.00 0.00 0.00 58 1016.9
20260830163730 90 212 2.0 5.0 0.00 0.00 0.00 58 1016.9
20260830163230 90 297 2.0 6.0 0.00 0.00 0.00 56 1016.9
20260830162730 90 149 2.0 8.0 0.00 0.00 0.00 59 1016.9
20260830162229 90 58 2.0 8.0 0.00 0.00 0.00 61 1016.9
20260830161729 90 220 2.0 5.0 0.00 0.00 0.00 62 1017.0
20260830161228 89 337 2.0 5.0 0.00 0.00 0.00 62 1017.0
20260830160730 89 0 2.0 6.0 0.00 0.00 0.00 62 1017.0
20260830160226 89 203 2.0 6.0 0.00 0.00 0.00 62 1017.0
20260830155726 89 287 2.0 5.0 0.00 0.00 0.00 60 1017.0
20260830155510 88 25 2.0 6.0 0.00 0.00 0.00 61 1016.9
20260830154725 87 85 2.0 6.0 0.00 0.00 0.00 64 1016.9
20260830154224 87 276 3.0 7.0 0.00 0.00 0.00 66 1016.9
20260830153725 86 233 3.0 8.0 0.00 0.00 0.00 66 1016.9
20260830153225 86 261 3.0 8.0 0.00 0.00 0.00 68 1016.8
20260830152724 85 284 3.0 7.0 0.00 0.00 0.00 68 1016.8
20260830152224 85 262 3.0 7.0 0.00 0.00 0.00 69 1016.7
20260830151725 85 204 3.0 8.0 0.00 0.00 0.00 70 1016.6
20260830151224 85 212 3.0 9.0 0.00 0.00 0.00 70 1016.6
20260830150724 85 222 3.0 9.0 0.00 0.00 0.00 71 1016.7
20260830150510 85 276 3.0 6.0 0.00 0.00 0.00 71 1016.7
20260830145725 84 262 3.0 7.0 0.00 0.00 0.00 71 1016.6
20260830145224 83 235 4.0 8.0 0.00 0.00 0.00 72 1016.6
20260830144724 83 245 4.0 8.0 0.00 0.00 0.00 73 1016.7
20260830144222 83 212 4.0 8.0 0.00 0.00 0.00 75 1016.7
20260830143722 83 227 4.0 9.0 0.00 0.00 0.00 74 1016.7
20260830143219 83 116 4.0 9.0 0.00 0.00 0.00 75 1016.7
20260830142719 83 194 3.0 9.0 0.00 0.00 0.00 75 1016.6
20260830142219 82 225 3.0 7.0 0.00 0.00 0.00 76 1016.6
20260830141720 82 244 3.0 7.0 0.00 0.00 0.00 75 1016.7
20260830141219 82 293 3.0 7.0 0.00 0.00 0.00 77 1016.7
20260830140720 81 195 3.0 7.0 0.00 0.00 0.00 78 1016.7
20260830140504 81 140 3.0 7.0 0.00 0.00 0.00 78 1016.7
20260830135721 80 223 4.0 8.0 0.00 0.00 0.00 80 1016.7
20260830135219 80 200 4.0 10.0 0.00 0.00 0.00 81 1016.6
20260830134720 80 203 4.0 10.0 0.00 0.00 0.00 81 1016.6
20260830134219 80 166 3.0 7.0 0.00 0.00 0.00 81 1016.5
20260830133718 80 243 3.0 9.0 0.00 0.00 0.00 82 1016.4
20260830133254 79 206 3.0 7.0 0.00 0.00 0.00 84 1016.3
20260830133239 79 186 3.0 9.0 0.00 0.00 0.00 83 1016.3
20260830132217 79 246 3.0 7.0 0.00 0.00 0.00 84 1016.3
20260830131719 79 200 3.0 7.0 0.00 0.00 0.00 85 1016.3
20260830131219 78 253 3.0 6.0 0.00 0.00 0.00 85 1016.2
20260830130719 78 255 2.0 4.0 0.00 0.00 0.00 86 1016.2
20260830130218 78 222 2.0 4.0 0.00 0.00 0.00 86 1016.1
20260830125705 77 230 2.0 3.0 0.00 0.00 0.00 87 1016.1
20260830125205 77 223 2.0 3.0 0.00 0.00 0.00 88 1016.1
20260830124705 76 179 2.0 3.0 0.00 0.00 0.00 89 1016.0
20260830124204 76 265 2.0 3.0 0.00 0.00 0.00 89 1016.0
20260830123933 76 208 2.0 4.0 0.00 0.00 0.00 89 1015.9
20260830123205 75 273 2.0 4.0 0.00 0.00 0.00 89 1015.9
20260830122705 75 166 2.0 4.0 0.00 0.00 0.00 89 1015.9
20260830122205 75 180 1.0 2.0 0.00 0.00 0.00 89 1015.8
20260830121705 75 200 1.0 2.0 0.00 0.00 0.00 89 1015.9
20260830121205 75 255 1.0 2.0 0.00 0.00 0.00 89 1015.8
20260830120703 75 218 1.0 2.0 0.00 0.00 0.00 89 1015.7
20260830120203 75 220 2.0 3.0 0.00 0.00 0.00 89 1015.7
20260830115702 75 271 1.0 3.0 0.00 0.00 0.00 88 1015.7
20260830115431 75 251 1.0 2.0 0.00 0.00 0.00 88 1015.6
20260830114702 75 194 1.0 2.0 0.00 0.00 0.00 88 1015.6
20260830114153 75 265 1.0 2.0 0.00 0.00 0.00 88 1015.5
20260830113652 75 257 1.0 2.0 0.00 0.00 0.00 88 1015.5
20260830113420 76 174 1.0 2.0 0.00 0.00 0.00 87 1015.5
20260830112651 76 281 0.0 2.0 0.00 0.00 0.00 87 1015.5
20260830112151 76 0 1.0 3.0 0.00 0.00 0.00 86 1015.5
20260830111652 76 287 1.0 3.0 0.00 0.00 0.00 86 1015.4
20260830111152 76 250 1.0 3.0 0.00 0.00 0.00 85 1015.5
20260830110652 76 158 1.0 2.0 0.00 0.00 0.00 85 1015.4
20260830110151 76 208 1.0 2.0 0.00 0.00 0.00 84 1015.4
20260830105653 76 294 1.0 2.0 0.00 0.00 0.00 84 1015.4
20260830105152 76 259 1.0 2.0 0.00 0.00 0.00 84 1015.4
20260830104652 76 288 1.0 2.0 0.00 0.00 0.00 83 1015.3
20260830104153 77 297 1.0 3.0 0.00 0.00 0.00 83 1015.3
20260830103637 77 195 1.0 3.0 0.00 0.00 0.00 83 1015.3
20260830103138 77 255 1.0 3.0 0.00 0.00 0.00 82 1015.3
20260830102644 77 271 1.0 2.0 0.00 0.00 0.00 81 1015.2
20260830102638 77 202 1.0 3.0 0.00 0.00 0.00 82 1015.2
20260830101640 77 187 1.0 3.0 0.00 0.00 0.00 81 1015.2
20260830101138 78 228 1.0 3.0 0.00 0.00 0.00 80 1015.2
20260830100630 78 0 1.0 3.0 0.00 0.00 0.00 80 1015.0
20260830100130 78 280 2.0 4.0 0.00 0.00 0.00 79 1015.0
20260830095630 78 195 2.0 5.0 0.00 0.00 0.00 79 1015.0
20260830095130 78 270 2.0 5.0 0.00 0.00 0.00 79 1015.0
20260830094631 0 0.0 0.0 0.00 0.00 0.00
20260830094103 78 206 2.0 4.0 0.00 0.00 0.00 78 1014.9
20260830093602 78 206 2.0 4.0 0.00 0.00 0.00 78 1014.9
20260830093102 78 231 2.0 4.0 0.00 0.00 0.00 78 1014.9